KK4XZ Weather Reports


Display with metric or nautical units.
time (UTC)temp
F
wind
direction
speed
MPH
gust
MPH
rain 1hr
in
rain 24hr
in
rain mn
in
humidity
%
barometer
mb
20260901185523 87 212 4.0 6.0 0.00 0.00 0.00 72 1017.7
20260901184518 87 222 3.0 6.0 0.00 0.00 0.00 73 1017.8
20260901183533 88 230 3.0 7.0 0.00 0.00 0.00 70 1017.8
20260901182528 88 189 2.0 4.0 0.00 0.00 0.00 71 1017.9
20260901181524 89 222 3.0 6.0 0.00 0.00 0.00 69 1017.9
20260901180520 90 206 2.0 5.0 0.00 0.00 0.00 69 1017.9
20260901175534 89 222 2.0 6.0 0.00 0.00 0.00 67 1017.9
20260901174529 89 219 2.0 6.0 0.00 0.00 0.00 68 1018.0
20260901173524 89 213 3.0 6.0 0.00 0.00 0.00 68 1018.0
20260901172520 90 229 3.0 6.0 0.00 0.00 0.00 66 1018.0
20260901171535 89 222 1.0 4.0 0.00 0.00 0.00 67 1018.0
20260901170531 89 238 3.0 5.0 0.00 0.00 0.00 68 1018.0
20260901165525 91 204 3.0 6.0 0.00 0.00 0.00 59 1018.2
20260901164521 91 0.0 0.0 0.00 0.00 0.00 63 1018.3
20260901163536 89 275 2.0 4.0 0.00 0.00 0.00 64 1018.4
20260901162532 88 242 1.0 4.0 0.00 0.00 0.00 66 1018.5
20260901161526 89 169 2.0 3.0 0.00 0.00 0.00 65 1018.6
20260901160522 88 30 1.0 3.0 0.00 0.00 0.00 66 1018.6
20260901155517 88 24 0.0 4.0 0.00 0.00 0.00 66 1018.8
20260901154532 89 313 1.0 2.0 0.00 0.00 0.00 68 1018.6
20260901153527 88 183 4.0 4.0 0.00 0.00 0.00 68 1018.6
20260901152523 88 176 3.0 5.0 0.00 0.00 0.00 68 1018.8
20260901151518 87 180 4.0 5.0 0.00 0.00 0.00 67 1018.7
20260901150533 87 185 4.0 5.0 0.00 0.00 0.00 67 1018.8
20260901145528 87 156 6.0 10.0 0.00 0.00 0.00 69 1018.9
20260901144523 86 135 7.0 9.0 0.00 0.00 0.00 71 1018.9
20260901143519 86 140 7.0 9.0 0.00 0.00 0.00 71 1019.0
20260901142534 85 136 7.0 9.0 0.00 0.00 0.00 74 1018.9
20260901141528 84 134 7.0 9.0 0.00 0.00 0.00 77 1018.9
20260901140524 83 131 7.0 9.0 0.00 0.00 0.00 79 1018.9
20260901135519 82 134 8.0 9.0 0.00 0.00 0.00 82 1018.9
20260901134534 81 134 7.0 10.0 0.00 0.00 0.00 84 1018.9
20260901133530 80 138 8.0 10.0 0.00 0.00 0.00 89 1019.0
20260901132525 79 132 7.0 9.0 0.00 0.00 0.00 92 1018.8
20260901131519 78 130 7.0 9.0 0.00 0.00 0.00 97 1018.8
20260901130535 77 135 8.0 9.0 0.00 0.00 0.00 97 1018.9
20260901125530 76 136 8.0 9.0 0.00 0.00 0.00 97 1018.9
20260901124525 76 136 8.0 9.0 0.00 0.00 0.00 97 1018.9
20260901123520 76 137 8.0 9.0 0.00 0.00 0.00 97 1018.9
20260901122536 75 137 8.0 9.0 0.00 0.00 0.00 97 1018.8
20260901121531 75 135 8.0 9.0 0.00 0.00 0.00 97 1018.7
20260901120526 74 136 9.0 10.0 0.00 0.00 0.00 97 1018.5
20260901115521 74 133 8.0 10.0 0.00 0.00 0.00 97 1018.5
20260901114516 74 134 8.0 10.0 0.00 0.00 0.00 97 1018.5
20260901113532 74 133 8.0 9.0 0.00 0.00 0.00 97 1018.5
20260901112527 73 135 8.0 10.0 0.00 0.00 0.00 97 1018.3
20260901111522 73 134 8.0 10.0 0.00 0.00 0.00 97 1018.2
20260901110517 73 125 7.0 10.0 0.00 0.00 0.00 97 1018.1
20260901105533 73 133 9.0 11.0 0.00 0.00 0.00 97 1018.0
20260901104528 73 133 9.0 10.0 0.00 0.00 0.00 97 1017.9
20260901103523 73 130 9.0 11.0 0.00 0.00 0.00 97 1017.9
20260901102518 73 130 8.0 10.0 0.00 0.00 0.00 97 1017.6
20260901101534 73 135 9.0 11.0 0.00 0.00 0.00 97 1017.8
20260901100529 73 133 9.0 10.0 0.00 0.00 0.00 97 1017.6
20260901095524 73 131 9.0 11.0 0.00 0.00 0.00 97 1017.5
20260901094519 74 132 9.0 11.0 0.00 0.00 0.00 97 1017.5
20260901093535 74 127 9.0 11.0 0.00 0.00 0.00 97 1017.4
20260901092529 74 134 9.0 11.0 0.00 0.00 0.00 97 1017.5
20260901091525 74 137 9.0 10.0 0.00 0.00 0.00 97 1017.6
20260901090520 74 128 8.0 11.0 0.00 0.00 0.00 97 1017.7
20260901085535 74 129 8.0 10.0 0.00 0.00 0.00 97 1017.6
20260901084530 74 138 9.0 10.0 0.00 0.00 0.00 97 1017.7
20260901083526 74 137 9.0 11.0 0.00 0.00 0.00 97 1017.8
20260901082521 74 136 9.0 11.0 0.00 0.00 0.00 97 1017.8
20260901081517 74 122 7.0 9.0 0.00 0.00 0.00 97 1017.9
20260901080532 74 134 9.0 11.0 0.00 0.00 0.00 97 1017.9
20260901075526 74 135 9.0 10.0 0.00 0.00 0.00 97 1017.8
20260901074522 74 132 9.0 10.0 0.00 0.00 0.00 97 1017.9
20260901073517 74 130 8.0 9.0 0.00 0.00 0.00 97 1017.9
20260901072533 74 131 9.0 10.0 0.00 0.00 0.00 97 1017.9
20260901071528 74 131 9.0 10.0 0.00 0.00 0.00 97 1018.0
20260901070523 75 131 9.0 9.0 0.00 0.00 0.00 97 1017.9
20260901065518 75 130 8.0 9.0 0.00 0.00 0.00 97 1017.9
20260901064534 75 130 9.0 10.0 0.00 0.00 0.00 97 1017.9
20260901063529 75 132 9.0 10.0 0.00 0.00 0.00 97 1017.8
20260901062524 75 131 9.0 10.0 0.00 0.00 0.00 97 1018.0
20260901061519 75 131 9.0 10.0 0.00 0.00 0.00 97 1018.2
20260901060534 75 130 8.0 10.0 0.00 0.00 0.00 97 1018.1
20260901055529 75 131 9.0 9.0 0.00 0.00 0.00 97 1018.3
20260901054524 75 133 9.0 10.0 0.00 0.00 0.00 97 1018.3
20260901053520 75 131 9.0 10.0 0.00 0.00 0.00 97 1018.4
20260901052535 75 131 9.0 10.0 0.00 0.00 0.00 97 1018.4
20260901051530 76 133 9.0 10.0 0.00 0.00 0.00 97 1018.6
20260901050525 76 131 8.0 9.0 0.00 0.00 0.00 96 1018.6
20260901045520 76 131 9.0 10.0 0.00 0.00 0.00 96 1018.5
20260901044535 76 133 9.0 10.0 0.00 0.00 0.00 96 1018.5
20260901043531 76 131 9.0 10.0 0.00 0.00 0.00 96 1018.6
20260901042526 76 133 8.0 10.0 0.00 0.00 0.00 96 1018.6
20260901041521 76 131 8.0 10.0 0.00 0.00 0.00 96 1018.6
20260901040536 76 131 8.0 9.0 0.00 0.00 0.00 95 1018.6
20260901035530 76 133 9.0 10.0 0.00 0.00 0.00 95 1018.7
20260901034526 77 133 8.0 9.0 0.00 0.00 0.00 95 1018.6
20260901033521 77 131 8.0 9.0 0.00 0.00 0.00 95 1018.5
20260901032536 77 131 8.0 9.0 0.00 0.00 0.00 94 1018.5
20260901031531 77 131 8.0 9.0 0.00 0.00 0.00 94 1018.5
20260901030526 77 132 8.0 10.0 0.00 0.00 0.00 93 1018.5
20260901025521 77 132 8.0 10.0 0.00 0.00 0.00 93 1018.6
20260901024517 78 132 8.0 9.0 0.00 0.00 0.00 93 1018.8
20260901023532 78 132 8.0 9.0 0.00 0.00 0.00 92 1018.8
20260901022527 78 133 8.0 9.0 0.00 0.00 0.00 92 1018.8
20260901021522 79 135 8.0 9.0 0.00 0.00 0.00 91 1018.8
20260901020517 79 134 8.0 9.0 0.00 0.00 0.00 89 1018.7
20260901015532 80 134 8.0 9.0 0.00 0.00 0.00 88 1018.5
20260901014528 80 139 9.0 10.0 0.00 0.00 0.00 87 1018.4
20260901013523 80 141 9.0 10.0 0.00 0.00 0.00 87 1018.3
20260901012518 80 135 9.0 10.0 0.00 0.00 0.00 87 1018.3
20260901011533 80 135 9.0 10.0 0.00 0.00 0.00 86 1018.2
20260901010529 80 137 8.0 9.0 0.00 0.00 0.00 86 1018.3
20260901005524 81 139 8.0 10.0 0.00 0.00 0.00 85 1018.1
20260901004519 80 140 8.0 10.0 0.00 0.00 0.00 85 1017.9
20260901003534 81 139 8.0 10.0 0.00 0.00 0.00 85 1018.0
20260901002529 80 141 8.0 10.0 0.00 0.00 0.00 86 1018.0
20260901001525 80 140 8.0 10.0 0.00 0.00 0.00 87 1018.0
20260901000519 80 135 9.0 10.0 0.00 0.00 0.00 86 1017.9
20260831235535 81 135 9.0 10.0 0.00 0.00 0.00 86 1017.8
20260831234530 81 134 9.0 10.0 0.00 0.00 0.00 85 1017.9
20260831233525 81 142 8.0 10.0 0.00 0.00 0.00 83 1017.8
20260831232520 82 139 8.0 9.0 0.00 0.00 0.00 83 1017.8
20260831231535 82 137 8.0 10.0 0.00 0.00 0.00 81 1018.0
20260831230530 82 136 9.0 11.0 0.00 0.00 0.00 80 1018.0
20260831225525 82 144 8.0 11.0 0.00 0.00 0.00 79 1018.1
20260831224520 82 145 8.0 9.0 0.00 0.00 0.00 80 1018.1
20260831223535 83 140 8.0 9.0 0.00 0.00 0.00 80 1018.0
20260831222530 83 141 8.0 10.0 0.00 0.00 0.00 80 1017.9
20260831221526 83 140 8.0 10.0 0.00 0.00 0.00 80 1018.0
20260831220521 83 139 8.0 10.0 0.00 0.00 0.00 81 1017.9
20260831215516 84 138 8.0 10.0 0.00 0.00 0.00 80 1017.8
20260831214531 84 140 8.0 11.0 0.00 0.00 0.00 79 1017.8
20260831213527 84 147 8.0 10.0 0.00 0.00 0.00 76 1017.9
20260831212522 84 152 7.0 11.0 0.00 0.00 0.00 77 1017.7
20260831211517 85 147 8.0 10.0 0.00 0.00 0.00 77 1017.8
20260831210532 85 143 8.0 10.0 0.00 0.00 0.00 76 1017.8
20260831205527 85 137 8.0 10.0 0.00 0.00 0.00 77 1017.7
20260831204523 84 145 7.0 10.0 0.00 0.00 0.00 76 1017.6
20260831203518 84 145 8.0 10.0 0.00 0.00 0.00 76 1017.7
20260831202533 84 142 8.0 10.0 0.00 0.00 0.00 77 1017.9
20260831201528 84 148 7.0 9.0 0.00 0.00 0.00 76 1017.8
20260831200523 85 188 5.0 7.0 0.00 0.00 0.00 76 1017.9
20260831195518 85 190 5.0 7.0 0.00 0.00 0.00 75 1017.9
20260831194533 86 147 8.0 10.0 0.00 0.00 0.00 75 1018.0
20260831193528 87 150 8.0 11.0 0.00 0.00 0.00 73 1018.1
20260831192522 87 159 6.0 9.0 0.00 0.00 0.00 72 1018.2
20260831191518 88 147 8.0 10.0 0.00 0.00 0.00 70 1018.4
20260831190533 87 141 9.0 11.0 0.00 0.00 0.00 72 1018.3